THY4ZQ HEAX-LTFM

Flight info

Callsign THY4ZQ
Flight time N/A
Altitude 34000
Route ALPAM V604 NOZ L551 GOMVA M855 RASDA/N0453F360 M855 TOMBI UM855 SISPI
Aircraft A321/M-SDE3FGHIRWY/LB1

Departure

Time 2026-05-06 19:12
Airport Alexandria International Airport (HEAX)

Arrival

Time N/A
Airport İstanbul Airport (LTFM)
Time Latitude Longitude Altitude Speed Heading
2026-05-06 18:51 30.93239 29.69490 170 ft 0 kts 53°
2026-05-06 19:00 30.93235 29.69482 170 ft 4 kts 53°
2026-05-06 19:01 30.93222 29.69462 170 ft 3 kts 54°
2026-05-06 19:01 30.93209 29.69435 169 ft 4 kts 76°
2026-05-06 19:01 30.93207 29.69405 170 ft 4 kts 104°
2026-05-06 19:01 30.93219 29.69379 170 ft 3 kts 142°
2026-05-06 19:02 30.93238 29.69362 172 ft 2 kts 142°
2026-05-06 19:02 30.93240 29.69360 172 ft 0 kts 142°
2026-05-06 19:05 30.93233 29.69367 170 ft 6 kts 142°
2026-05-06 19:05 30.93163 29.69429 170 ft 18 kts 142°
2026-05-06 19:05 30.93040 29.69538 170 ft 24 kts 142°
2026-05-06 19:05 30.92943 29.69616 169 ft 16 kts 154°
2026-05-06 19:06 30.92840 29.69555 170 ft 20 kts 222°
2026-05-06 19:06 30.92738 29.69585 180 ft 14 kts 143°
2026-05-06 19:06 30.92627 29.69689 182 ft 24 kts 141°
2026-05-06 19:06 30.92495 29.69810 188 ft 24 kts 141°
2026-05-06 19:07 30.92360 29.69922 191 ft 24 kts 146°
2026-05-06 19:07 30.92271 29.69996 189 ft 24 kts 143°
2026-05-06 19:07 30.92091 29.70154 193 ft 24 kts 143°
2026-05-06 19:07 30.91952 29.70275 191 ft 26 kts 142°
2026-05-06 19:08 30.91807 29.70402 192 ft 27 kts 143°
2026-05-06 19:08 30.91654 29.70537 183 ft 28 kts 143°
2026-05-06 19:08 30.91490 29.70681 176 ft 31 kts 142°
2026-05-06 19:08 30.91327 29.70827 167 ft 31 kts 142°
2026-05-06 19:09 30.91160 29.70975 164 ft 28 kts 143°
2026-05-06 19:09 30.91029 29.71092 161 ft 18 kts 142°
2026-05-06 19:09 30.90948 29.71153 160 ft 13 kts 165°
2026-05-06 19:09 30.90883 29.71114 165 ft 10 kts 230°
2026-05-06 19:10 30.90812 29.71011 173 ft 19 kts 231°
2026-05-06 19:10 30.90734 29.70892 182 ft 19 kts 233°
2026-05-06 19:10 30.90670 29.70766 193 ft 18 kts 244°
2026-05-06 19:10 30.90626 29.70647 183 ft 14 kts 266°
2026-05-06 19:11 30.90696 29.70555 181 ft 18 kts 323°
2026-05-06 19:11 30.90952 29.70330 180 ft 83 kts 323°
2026-05-06 19:11 30.91589 29.69771 185 ft 144 kts 323°
2026-05-06 19:11 30.92477 29.69008 582 ft 160 kts 324°
2026-05-06 19:12 30.93382 29.68263 1354 ft 158 kts 327°
2026-05-06 19:12 30.94418 29.67720 1904 ft 171 kts 342°
2026-05-06 19:12 30.95580 29.67234 2318 ft 183 kts 340°
2026-05-06 19:12 30.96842 29.66808 2681 ft 197 kts 359°
2026-05-06 19:13 30.98157 29.67393 2942 ft 220 kts 41°
2026-05-06 19:13 30.99061 29.68979 3196 ft 250 kts 60°
2026-05-06 19:13 30.99751 29.70890 3822 ft 259 kts 67°
2026-05-06 19:13 31.00344 29.72894 4587 ft 263 kts 68°
2026-05-06 19:14 31.00958 29.74932 5300 ft 267 kts 68°
2026-05-06 19:14 31.01607 29.76971 6043 ft 270 kts 67°
2026-05-06 19:14 31.02299 29.79024 6731 ft 274 kts 65°
2026-05-06 19:14 31.03291 29.80915 7355 ft 276 kts 45°
2026-05-06 19:15 31.04751 29.82365 8017 ft 277 kts 35°
2026-05-06 19:15 31.06291 29.83753 8681 ft 282 kts 36°
2026-05-06 19:15 31.07855 29.85166 9325 ft 287 kts 36°
2026-05-06 19:15 31.09442 29.86604 9978 ft 291 kts 36°
2026-05-06 19:16 31.11070 29.88082 10342 ft 306 kts 36°
2026-05-06 19:16 31.12814 29.89661 10461 ft 328 kts 36°
2026-05-06 19:16 31.14723 29.91257 10578 ft 346 kts 27°
2026-05-06 19:16 31.16981 29.92382 10735 ft 360 kts 13°
2026-05-06 19:17 31.19475 29.92828 11151 ft 365 kts 359°
2026-05-06 19:17 31.21998 29.92548 11683 ft 366 kts 346°
2026-05-06 19:17 31.24397 29.91554 12237 ft 367 kts 332°
2026-05-06 19:17 31.26632 29.90178 12816 ft 369 kts 330°
2026-05-06 19:18 31.28897 29.88764 13400 ft 371 kts 330°
2026-05-06 19:18 31.31183 29.87329 13965 ft 373 kts 330°
2026-05-06 19:18 31.33478 29.85887 14467 ft 376 kts 330°
2026-05-06 19:18 31.35790 29.84437 14964 ft 379 kts 330°
2026-05-06 19:19 31.38126 29.82975 15464 ft 382 kts 330°
2026-05-06 19:19 31.40478 29.81506 15969 ft 384 kts 330°
2026-05-06 19:19 31.42845 29.80024 16462 ft 387 kts 330°
2026-05-06 19:19 31.45225 29.78530 16929 ft 390 kts 330°
2026-05-06 19:20 31.47620 29.77025 17382 ft 392 kts 330°
2026-05-06 19:20 31.50033 29.75507 17825 ft 395 kts 330°
2026-05-06 19:20 31.52470 29.73977 18285 ft 398 kts 330°
2026-05-06 19:20 31.54916 29.72441 18694 ft 400 kts 330°
2026-05-06 19:21 31.57375 29.70898 19112 ft 402 kts 330°
2026-05-06 19:21 31.59012 29.69872 19385 ft 403 kts 330°
2026-05-06 19:21 31.61523 29.68296 19799 ft 405 kts 330°
2026-05-06 19:21 31.63976 29.66751 20202 ft 407 kts 330°
2026-05-06 19:22 31.66506 29.65155 20616 ft 408 kts 330°
2026-05-06 19:22 31.69011 29.63572 21017 ft 410 kts 330°
2026-05-06 19:22 31.71532 29.61976 21408 ft 412 kts 330°
2026-05-06 19:22 31.74065 29.60372 21804 ft 414 kts 330°
2026-05-06 19:23 31.76590 29.58818 22176 ft 417 kts 334°
2026-05-06 19:23 31.79430 29.57858 22539 ft 424 kts 350°
2026-05-06 19:23 31.82360 29.57912 22897 ft 433 kts
2026-05-06 19:23 31.85233 29.59046 23272 ft 443 kts 24°
2026-05-06 19:24 31.87744 29.61194 23614 ft 452 kts 38°
2026-05-06 19:24 31.90075 29.63691 23925 ft 454 kts 39°
2026-05-06 19:24 31.92406 29.66211 24230 ft 456 kts 39°
2026-05-06 19:24 31.94742 29.68746 24532 ft 458 kts 39°
2026-05-06 19:25 31.97090 29.71292 24830 ft 460 kts 39°
2026-05-06 19:25 31.99454 29.73847 25126 ft 462 kts 39°
2026-05-06 19:25 32.01834 29.76412 25428 ft 464 kts 38°
2026-05-06 19:25 32.04226 29.78984 25710 ft 466 kts 38°
2026-05-06 19:26 32.06624 29.81564 25996 ft 468 kts 38°
2026-05-06 19:26 32.09035 29.84162 26280 ft 470 kts 39°
2026-05-06 19:26 32.11452 29.86772 26551 ft 473 kts 39°
2026-05-06 19:26 32.13886 29.89402 26798 ft 475 kts 39°
2026-05-06 19:27 32.16321 29.92037 27051 ft 476 kts 39°
2026-05-06 19:27 32.18766 29.94688 27284 ft 478 kts 39°
2026-05-06 19:27 32.21220 29.97353 27515 ft 480 kts 39°
2026-05-06 19:27 32.23677 30.00022 27732 ft 481 kts 39°
2026-05-06 19:28 32.26139 30.02701 27952 ft 482 kts 39°
2026-05-06 19:28 32.28610 30.05385 28252 ft 482 kts 39°
2026-05-06 19:28 32.31076 30.08062 28559 ft 481 kts 39°
2026-05-06 19:28 32.33535 30.10737 28862 ft 480 kts 39°
2026-05-06 19:29 32.35992 30.13409 29147 ft 480 kts 39°
2026-05-06 19:29 32.38448 30.16082 29454 ft 480 kts 39°
2026-05-06 19:29 32.40898 30.18754 29747 ft 479 kts 39°
2026-05-06 19:29 32.43348 30.21429 30047 ft 479 kts 39°
2026-05-06 19:30 32.45793 30.24105 30320 ft 478 kts 39°
2026-05-06 19:30 32.48230 30.26777 30578 ft 478 kts 39°
2026-05-06 19:30 32.50665 30.29446 30830 ft 477 kts 39°
2026-05-06 19:30 32.53100 30.32114 31079 ft 476 kts 39°
2026-05-06 19:31 32.55534 30.34775 31334 ft 476 kts 39°
2026-05-06 19:31 32.57965 30.37433 31606 ft 475 kts 39°
2026-05-06 19:31 32.62778 30.42715 32102 ft 474 kts 39°
2026-05-06 19:32 32.65198 30.45375 32335 ft 474 kts 39°
2026-05-06 19:32 32.67618 30.48037 32563 ft 474 kts 39°
2026-05-06 19:32 32.70035 30.50698 32808 ft 474 kts 39°
2026-05-06 19:32 32.72449 30.53361 33059 ft 473 kts 39°
2026-05-06 19:33 32.74860 30.56021 33321 ft 473 kts 39°
2026-05-06 19:33 32.77267 30.58678 33571 ft 472 kts 39°
2026-05-06 19:33 32.79671 30.61330 33834 ft 471 kts 39°
2026-05-06 19:33 32.82075 30.63979 34049 ft 471 kts 39°
2026-05-06 19:34 32.86877 30.69280 34111 ft 471 kts 39°
2026-05-06 19:34 32.91667 30.74593 34111 ft 471 kts 39°
2026-05-06 19:35 32.96447 30.79911 34109 ft 470 kts 39°
2026-05-06 19:35 33.01226 30.85219 34109 ft 470 kts 39°
2026-05-06 19:36 33.06113 30.90367 34111 ft 465 kts 30°
2026-05-06 19:36 33.11819 30.93712 34128 ft 453 kts 11°
2026-05-06 19:37 33.17950 30.94707 34124 ft 440 kts 353°
2026-05-06 19:37 33.24073 30.94453 34121 ft 440 kts 353°
2026-05-06 19:38 33.30204 30.94232 34124 ft 441 kts 354°
2026-05-06 19:38 33.36297 30.94012 34136 ft 441 kts 353°
2026-05-06 19:39 33.42433 30.93783 34134 ft 441 kts 353°
2026-05-06 19:39 33.48562 30.93554 34130 ft 440 kts 353°
2026-05-06 19:40 33.54683 30.93325 34125 ft 440 kts 353°
2026-05-06 19:40 33.60797 30.93085 34139 ft 439 kts 353°
2026-05-06 19:41 33.66898 30.92860 34135 ft 438 kts 353°
2026-05-06 19:41 33.72991 30.92629 34133 ft 438 kts 353°
2026-05-06 19:42 33.79077 30.92386 34150 ft 437 kts 353°
2026-05-06 19:42 33.85150 30.92153 34138 ft 436 kts 353°
2026-05-06 19:43 33.91207 30.91925 34136 ft 435 kts 353°
2026-05-06 19:43 33.97259 30.91701 34131 ft 434 kts 352°
2026-05-06 19:44 34.03287 30.91376 34147 ft 433 kts 352°
2026-05-06 19:44 34.09304 30.91012 34136 ft 432 kts 352°
2026-05-06 19:45 34.15307 30.90661 34133 ft 431 kts 352°
2026-05-06 19:45 34.21257 30.90330 34131 ft 431 kts 352°
2026-05-06 19:46 34.27246 30.90007 34129 ft 431 kts 352°
2026-05-06 19:46 34.33230 30.89718 34126 ft 431 kts 352°
2026-05-06 19:47 34.39220 30.89444 34124 ft 430 kts 352°
2026-05-06 19:47 34.45207 30.89154 34123 ft 430 kts 352°
2026-05-06 19:48 34.51186 30.88844 34140 ft 430 kts 352°
2026-05-06 19:48 34.57148 30.88543 34133 ft 429 kts 352°
2026-05-06 19:49 34.63106 30.88259 34130 ft 428 kts 352°
2026-05-06 19:49 34.69064 30.88048 34128 ft 428 kts 353°
2026-05-06 19:50 34.75018 30.87874 34133 ft 427 kts 353°
2026-05-06 19:50 34.80956 30.87687 34130 ft 427 kts 353°
2026-05-06 19:51 34.86889 30.87500 34127 ft 426 kts 353°
2026-05-06 19:51 34.92815 30.87295 34139 ft 426 kts 353°
2026-05-06 19:52 34.98733 30.87105 34127 ft 425 kts 353°
2026-05-06 19:52 35.04640 30.86910 34124 ft 424 kts 353°
2026-05-06 19:53 35.10506 30.86705 34125 ft 424 kts 353°
2026-05-06 19:53 35.16401 30.86509 34138 ft 424 kts 353°
2026-05-06 19:54 35.22288 30.86324 34135 ft 422 kts 353°
2026-05-06 19:54 35.25218 30.86230 34351 ft 420 kts 353°
2026-05-06 19:54 35.28139 30.86134 34581 ft 420 kts 353°
2026-05-06 19:55 35.31056 30.86036 34817 ft 419 kts 353°
2026-05-06 19:55 35.33967 30.85936 35021 ft 419 kts 353°
2026-05-06 19:55 35.39815 30.85729 35094 ft 420 kts 353°
2026-05-06 19:56 35.45655 30.85531 35098 ft 419 kts 353°
2026-05-06 19:56 35.51491 30.85337 35099 ft 419 kts 353°
2026-05-06 19:57 35.57323 30.85138 35097 ft 419 kts 353°
2026-05-06 19:57 35.63146 30.84944 35102 ft 417 kts 352°
2026-05-06 19:58 35.68938 30.84621 35105 ft 417 kts 352°
2026-05-06 19:58 35.74715 30.84231 35436 ft 414 kts 352°
2026-05-06 19:59 35.77587 30.84042 35680 ft 413 kts 352°
2026-05-06 19:59 35.80459 30.83862 35951 ft 413 kts 352°
2026-05-06 19:59 35.83334 30.83685 36071 ft 415 kts 352°
2026-05-06 19:59 35.86224 30.83510 36096 ft 418 kts 352°
2026-05-06 20:00 35.92043 30.83169 36098 ft 419 kts 352°
2026-05-06 20:00 35.97868 30.82826 36098 ft 419 kts 352°
2026-05-06 20:01 36.03693 30.82471 36101 ft 419 kts 352°
2026-05-06 20:01 36.06529 30.81903 36096 ft 408 kts 335°
2026-05-06 20:01 36.08922 30.80130 36099 ft 400 kts 314°
2026-05-06 20:02 36.10518 30.77362 36087 ft 399 kts 293°
2026-05-06 20:02 36.11087 30.74005 36077 ft 405 kts 272°
2026-05-06 20:02 36.10524 30.70561 36070 ft 418 kts 251°
2026-05-06 20:02 36.08878 30.67534 36063 ft 435 kts 230°
2026-05-06 20:03 36.06345 30.65381 36044 ft 453 kts 208°
2026-05-06 20:03 36.03240 30.64405 36064 ft 469 kts 192°
2026-05-06 20:03 35.96716 30.63447 36065 ft 474 kts 192°
2026-05-06 20:04 35.90162 30.62744 36068 ft 479 kts 189°
2026-05-06 20:04 35.83465 30.63169 36055 ft 488 kts 176°
2026-05-06 20:05 35.76742 30.64453 36073 ft 489 kts 176°